Time,TemperatureF,DewpointF,PressureIn,WindDirection,WindDirectionDegrees,WindSpeedMPH,WindSpeedGustMPH,Humidity,HourlyPrecipIn,Conditions,Clouds,dailyrainin,SoftwareType,DateUTC
2013-04-29 00:01:00,54.1,41.0,30.30,ESE,115,0.0,3.0,61,0.00,,,0.00,meteohub,2013-04-29 04:01:00,
2013-04-29 00:02:00,54.1,41.4,30.30,ESE,115,0.0,3.0,62,0.00,,,0.00,meteohub,2013-04-29 04:02:00,
2013-04-29 00:05:00,54.0,41.2,30.30,ESE,117,0.0,3.0,62,0.00,,,0.00,meteohub,2013-04-29 04:05:00,
2013-04-29 00:06:00,54.0,41.2,30.30,ESE,117,0.0,3.0,62,0.00,,,0.00,meteohub,2013-04-29 04:06:00,
2013-04-29 00:11:00,53.8,41.0,30.30,SE,141,0.0,3.0,62,0.00,,,0.00,meteohub,2013-04-29 04:11:00,
2013-04-29 00:16:00,53.6,41.7,30.30,SE,129,0.0,0.0,64,0.00,,,0.00,meteohub,2013-04-29 04:16:00,
2013-04-29 00:21:00,53.4,41.5,30.30,ESE,114,0.0,1.0,64,0.00,,,0.00,meteohub,2013-04-29 04:21:00,
2013-04-29 00:26:00,53.4,41.9,30.29,ESE,112,0.0,1.0,65,0.00,,,0.00,meteohub,2013-04-29 04:26:00,
2013-04-29 00:31:00,53.4,42.8,30.30,ESE,111,0.0,1.0,67,0.00,,,0.00,meteohub,2013-04-29 04:31:00,
2013-04-29 00:36:00,53.2,43.0,30.29,ESE,112,0.0,1.0,68,0.00,,,0.00,meteohub,2013-04-29 04:36:00,
2013-04-29 00:41:00,53.2,43.0,30.30,ESE,114,1.0,1.0,68,0.00,,,0.00,meteohub,2013-04-29 04:41:00,
2013-04-29 00:46:00,53.1,42.8,30.29,ESE,112,0.0,1.0,68,0.00,,,0.00,meteohub,2013-04-29 04:46:00,
2013-04-29 00:51:00,53.1,42.8,30.29,ESE,113,1.0,1.0,68,0.00,,,0.00,meteohub,2013-04-29 04:51:00,
2013-04-29 00:56:00,53.1,42.1,30.29,ESE,116,1.0,2.0,66,0.00,,,0.00,meteohub,2013-04-29 04:56:00,
2013-04-29 01:01:00,53.1,42.4,30.29,ESE,117,0.0,2.0,67,0.00,,,0.00,meteohub,2013-04-29 05:01:00,
2013-04-29 01:06:00,53.1,42.4,30.29,East,94,0.0,2.0,67,0.00,,,0.00,meteohub,2013-04-29 05:06:00,
2013-04-29 01:11:00,52.9,41.9,30.29,ESE,117,1.0,3.0,66,0.00,,,0.00,meteohub,2013-04-29 05:11:00,
2013-04-29 01:17:00,52.9,42.3,30.29,SE,127,1.0,3.0,67,0.00,,,0.00,meteohub,2013-04-29 05:17:00,
2013-04-29 01:22:00,52.9,42.3,30.29,SE,134,0.0,3.0,67,0.00,,,0.00,meteohub,2013-04-29 05:22:00,
2013-04-29 01:27:00,52.7,42.1,30.28,ESE,107,1.0,3.0,67,0.00,,,0.00,meteohub,2013-04-29 05:27:00,
2013-04-29 01:32:00,52.7,42.4,30.28,ESE,105,0.0,3.0,68,0.00,,,0.00,meteohub,2013-04-29 05:32:00,
2013-04-29 01:37:00,52.7,42.4,30.28,SE,128,1.0,3.0,68,0.00,,,0.00,meteohub,2013-04-29 05:37:00,
2013-04-29 01:42:00,52.5,42.6,30.28,ESE,111,0.0,4.0,69,0.00,,,0.00,meteohub,2013-04-29 05:42:00,
2013-04-29 01:47:00,52.5,42.6,30.28,East,96,0.0,4.0,69,0.00,,,0.00,meteohub,2013-04-29 05:47:00,
2013-04-29 01:52:00,52.3,42.8,30.28,ESE,108,1.0,3.0,70,0.00,,,0.00,meteohub,2013-04-29 05:52:00,
2013-04-29 01:57:00,52.3,43.2,30.28,SE,130,1.0,3.0,71,0.00,,,0.00,meteohub,2013-04-29 05:57:00,
2013-04-29 02:02:00,52.3,43.2,30.28,East,86,1.0,3.0,71,0.00,,,0.00,meteohub,2013-04-29 06:02:00,
2013-04-29 02:07:00,52.2,43.3,30.27,ESE,107,1.0,3.0,72,0.00,,,0.00,meteohub,2013-04-29 06:07:00,
2013-04-29 02:12:00,52.2,43.3,30.27,ESE,103,1.0,3.0,72,0.00,,,0.00,meteohub,2013-04-29 06:12:00,
2013-04-29 02:17:00,52.2,43.7,30.27,East,82,1.0,4.0,73,0.00,,,0.00,meteohub,2013-04-29 06:17:00,
2013-04-29 02:22:00,52.0,43.5,30.27,SE,132,2.0,4.0,73,0.00,,,0.00,meteohub,2013-04-29 06:22:00,
2013-04-29 02:27:00,52.0,43.5,30.27,ESE,103,1.0,4.0,73,0.00,,,0.00,meteohub,2013-04-29 06:27:00,
2013-04-29 02:32:00,52.0,43.9,30.27,ESE,120,0.0,4.0,74,0.00,,,0.00,meteohub,2013-04-29 06:32:00,
2013-04-29 02:37:00,52.0,44.2,30.27,ESE,111,2.0,3.0,75,0.00,,,0.00,meteohub,2013-04-29 06:37:00,
2013-04-29 02:42:00,51.8,44.1,30.27,ESE,121,1.0,3.0,75,0.00,,,0.00,meteohub,2013-04-29 06:42:00,
2013-04-29 02:47:00,51.8,44.1,30.26,ESE,113,1.0,3.0,75,0.00,,,0.00,meteohub,2013-04-29 06:47:00,
2013-04-29 02:52:00,51.8,44.4,30.26,East,98,1.0,2.0,76,0.00,,,0.00,meteohub,2013-04-29 06:52:00,
2013-04-29 02:57:00,51.8,44.8,30.26,ESE,117,1.0,2.0,77,0.00,,,0.00,meteohub,2013-04-29 06:57:00,
2013-04-29 03:02:00,51.6,45.0,30.26,East,87,1.0,3.0,78,0.00,,,0.00,meteohub,2013-04-29 07:02:00,
2013-04-29 03:07:00,51.6,45.0,30.26,ESE,121,1.0,3.0,78,0.00,,,0.00,meteohub,2013-04-29 07:07:00,
2013-04-29 03:12:00,51.6,45.3,30.26,ESE,102,0.0,3.0,79,0.00,,,0.00,meteohub,2013-04-29 07:12:00,
2013-04-29 03:17:00,51.4,45.1,30.26,ESE,121,1.0,2.0,79,0.00,,,0.00,meteohub,2013-04-29 07:17:00,
2013-04-29 03:22:00,51.4,45.5,30.26,ESE,118,0.0,2.0,80,0.00,,,0.00,meteohub,2013-04-29 07:22:00,
2013-04-29 03:27:00,51.3,45.7,30.26,ESE,121,0.0,2.0,81,0.00,,,0.00,meteohub,2013-04-29 07:27:00,
2013-04-29 03:32:00,51.3,46.0,30.26,ESE,116,0.0,2.0,82,0.00,,,0.00,meteohub,2013-04-29 07:32:00,
2013-04-29 03:37:00,51.1,46.0,30.26,SE,124,3.0,3.0,83,0.00,,,0.00,meteohub,2013-04-29 07:37:00,
2013-04-29 03:42:00,51.1,46.4,30.26,ESE,123,0.0,3.0,84,0.00,,,0.00,meteohub,2013-04-29 07:42:00,
2013-04-29 03:47:00,50.7,46.0,30.26,ESE,122,0.0,3.0,84,0.00,,,0.00,meteohub,2013-04-29 07:47:00,
2013-04-29 03:52:00,50.7,46.4,30.26,ESE,112,1.0,4.0,85,0.00,,,0.00,meteohub,2013-04-29 07:52:00,
2013-04-29 03:57:00,50.7,46.4,30.26,ESE,122,2.0,4.0,85,0.00,,,0.00,meteohub,2013-04-29 07:57:00,
2013-04-29 04:02:00,50.7,46.4,30.26,SE,146,2.0,3.0,85,0.00,,,0.00,meteohub,2013-04-29 08:02:00,
2013-04-29 04:07:00,50.5,46.6,30.26,ESE,118,1.0,3.0,86,0.00,,,0.00,meteohub,2013-04-29 08:07:00,
2013-04-29 04:12:00,50.5,46.6,30.26,SE,131,0.0,3.0,86,0.00,,,0.00,meteohub,2013-04-29 08:12:00,
2013-04-29 04:17:00,50.5,46.6,30.26,ESE,120,0.0,3.0,86,0.00,,,0.00,meteohub,2013-04-29 08:17:00,
2013-04-29 04:22:00,50.4,46.6,30.26,ESE,105,1.0,2.0,87,0.00,,,0.00,meteohub,2013-04-29 08:22:00,
2013-04-29 04:27:00,50.4,46.6,30.26,SE,124,0.0,3.0,87,0.00,,,0.00,meteohub,2013-04-29 08:27:00,
2013-04-29 04:32:00,50.4,46.6,30.26,ESE,123,0.0,3.0,87,0.00,,,0.00,meteohub,2013-04-29 08:32:00,
2013-04-29 04:37:00,50.4,46.6,30.26,ESE,122,1.0,3.0,87,0.00,,,0.00,meteohub,2013-04-29 08:37:00,
2013-04-29 04:42:00,50.4,46.9,30.25,East,97,1.0,2.0,88,0.01,,,0.01,meteohub,2013-04-29 08:42:00,
2013-04-29 04:47:00,50.4,46.9,30.25,ESE,115,2.0,4.0,88,0.01,,,0.01,meteohub,2013-04-29 08:47:00,
2013-04-29 04:52:00,50.5,47.5,30.25,ESE,117,1.0,4.0,89,0.01,,,0.01,meteohub,2013-04-29 08:52:00,
2013-04-29 04:57:00,50.5,47.5,30.25,ESE,108,0.0,4.0,89,0.01,,,0.01,meteohub,2013-04-29 08:57:00,
2013-04-29 05:02:00,50.5,47.5,30.25,SE,144,3.0,4.0,89,0.01,,,0.01,meteohub,2013-04-29 09:02:00,
2013-04-29 05:07:00,50.5,47.7,30.25,SE,127,0.0,3.0,90,0.01,,,0.01,meteohub,2013-04-29 09:07:00,
2013-04-29 05:12:00,50.5,47.7,30.25,ESE,118,2.0,3.0,90,0.01,,,0.01,meteohub,2013-04-29 09:12:00,
2013-04-29 05:17:00,50.5,47.7,30.25,SE,146,0.0,3.0,90,0.01,,,0.01,meteohub,2013-04-29 09:17:00,
2013-04-29 05:22:00,50.5,48.0,30.25,SE,138,0.0,3.0,91,0.01,,,0.01,meteohub,2013-04-29 09:22:00,
2013-04-29 05:27:00,50.5,48.0,30.25,ESE,118,0.0,2.0,91,0.01,,,0.01,meteohub,2013-04-29 09:27:00,
2013-04-29 05:32:00,50.5,48.0,30.25,ESE,107,1.0,3.0,91,0.01,,,0.01,meteohub,2013-04-29 09:32:00,
2013-04-29 05:37:00,50.5,48.0,30.25,SE,132,1.0,3.0,91,0.01,,,0.01,meteohub,2013-04-29 09:37:00,
2013-04-29 05:42:00,50.7,48.2,30.25,ESE,114,0.0,3.0,91,0.00,,,0.01,meteohub,2013-04-29 09:42:00,
2013-04-29 05:47:00,50.7,48.6,30.25,ESE,115,3.0,3.0,92,0.00,,,0.01,meteohub,2013-04-29 09:47:00,
2013-04-29 05:52:00,50.7,48.6,30.25,ESE,122,0.0,4.0,92,0.00,,,0.01,meteohub,2013-04-29 09:52:00,
2013-04-29 05:57:00,50.7,48.6,30.25,ESE,117,0.0,4.0,92,0.00,,,0.01,meteohub,2013-04-29 09:57:00,
2013-04-29 06:02:00,50.7,48.6,30.25,ESE,120,1.0,4.0,92,0.00,,,0.01,meteohub,2013-04-29 10:02:00,
2013-04-29 06:07:00,50.7,48.6,30.25,ESE,102,0.0,3.0,92,0.00,,,0.01,meteohub,2013-04-29 10:07:00,
2013-04-29 06:12:00,50.7,48.6,30.25,East,96,3.0,3.0,92,0.00,,,0.01,meteohub,2013-04-29 10:12:00,
2013-04-29 06:17:00,50.7,48.7,30.25,ESE,121,3.0,5.0,93,0.00,,,0.01,meteohub,2013-04-29 10:17:00,
2013-04-29 06:22:00,50.9,48.9,30.26,SE,133,1.0,5.0,93,0.00,,,0.01,meteohub,2013-04-29 10:22:00,
2013-04-29 06:27:00,50.9,48.9,30.26,SE,124,0.0,5.0,93,0.01,,,0.02,meteohub,2013-04-29 10:27:00,
2013-04-29 06:32:00,50.9,48.9,30.26,SE,127,2.0,4.0,93,0.01,,,0.02,meteohub,2013-04-29 10:32:00,
2013-04-29 06:37:00,51.1,49.5,30.26,SSE,150,1.0,7.0,94,0.01,,,0.02,meteohub,2013-04-29 10:37:00,
2013-04-29 06:42:00,51.1,49.5,30.26,East,93,3.0,7.0,94,0.01,,,0.02,meteohub,2013-04-29 10:42:00,
2013-04-29 06:47:00,51.1,49.5,30.26,East,97,2.0,7.0,94,0.01,,,0.02,meteohub,2013-04-29 10:47:00,
2013-04-29 06:52:00,51.1,49.5,30.26,South,174,1.0,7.0,94,0.01,,,0.02,meteohub,2013-04-29 10:52:00,
2013-04-29 06:57:00,51.3,49.6,30.26,SE,124,1.0,7.0,94,0.02,,,0.03,meteohub,2013-04-29 10:57:00,
2013-04-29 07:02:00,51.3,49.6,30.27,SE,143,2.0,7.0,94,0.02,,,0.03,meteohub,2013-04-29 11:02:00,
2013-04-29 07:07:00,51.3,49.8,30.27,SE,132,3.0,6.0,95,0.02,,,0.03,meteohub,2013-04-29 11:07:00,
2013-04-29 07:12:00,51.3,49.8,30.26,SE,143,3.0,6.0,95,0.03,,,0.04,meteohub,2013-04-29 11:12:00,
2013-04-29 07:17:00,51.3,49.8,30.26,ESE,118,2.0,8.0,95,0.04,,,0.04,meteohub,2013-04-29 11:17:00,
2013-04-29 07:22:00,51.4,50.0,30.26,East,96,7.0,10.0,95,0.03,,,0.05,meteohub,2013-04-29 11:22:00,
2013-04-29 07:27:00,51.4,50.0,30.26,SE,130,5.0,10.0,95,0.03,,,0.05,meteohub,2013-04-29 11:27:00,
2013-04-29 07:32:00,51.4,50.0,30.26,South,169,4.0,9.0,95,0.03,,,0.05,meteohub,2013-04-29 11:32:00,
2013-04-29 07:37:00,51.6,50.2,30.26,SSW,203,5.0,10.0,95,0.04,,,0.06,meteohub,2013-04-29 11:37:00,
2013-04-29 07:42:00,51.6,50.2,30.26,SE,132,5.0,11.0,95,0.04,,,0.06,meteohub,2013-04-29 11:42:00,
2013-04-29 07:47:00,51.6,50.2,30.26,SE,142,2.0,11.0,95,0.04,,,0.06,meteohub,2013-04-29 11:47:00,
2013-04-29 07:52:00,51.6,50.2,30.27,ESE,117,2.0,11.0,95,0.04,,,0.06,meteohub,2013-04-29 11:52:00,
2013-04-29 07:57:00,51.6,50.2,30.27,ESE,103,6.0,10.0,95,0.03,,,0.06,meteohub,2013-04-29 11:57:00,
2013-04-29 08:02:00,51.6,50.5,30.27,SE,128,5.0,10.0,96,0.03,,,0.06,meteohub,2013-04-29 12:02:00,
2013-04-29 08:07:00,51.6,50.2,30.27,ESE,114,2.0,9.0,95,0.02,,,0.06,meteohub,2013-04-29 12:07:00,
2013-04-29 08:12:00,51.8,50.4,30.26,ESE,115,7.0,11.0,95,0.03,,,0.07,meteohub,2013-04-29 12:12:00,
2013-04-29 08:17:00,51.8,50.4,30.26,SE,136,4.0,11.0,95,0.02,,,0.07,meteohub,2013-04-29 12:17:00,
2013-04-29 08:22:00,51.8,50.4,30.26,SE,130,3.0,11.0,95,0.02,,,0.07,meteohub,2013-04-29 12:22:00,
2013-04-29 08:27:00,52.0,50.5,30.27,ESE,116,1.0,11.0,95,0.02,,,0.07,meteohub,2013-04-29 12:27:00,
2013-04-29 08:32:00,52.0,50.5,30.27,SE,129,5.0,11.0,95,0.02,,,0.07,meteohub,2013-04-29 12:32:00,
2013-04-29 08:37:00,52.0,50.5,30.26,SE,129,2.0,9.0,95,0.01,,,0.07,meteohub,2013-04-29 12:37:00,
2013-04-29 08:42:00,51.8,50.4,30.27,SE,124,3.0,10.0,95,0.01,,,0.07,meteohub,2013-04-29 12:42:00,
2013-04-29 08:47:00,51.8,50.2,30.26,SSE,160,3.0,10.0,94,0.01,,,0.07,meteohub,2013-04-29 12:47:00,
2013-04-29 08:52:00,52.0,50.4,30.27,SSE,152,3.0,9.0,94,0.01,,,0.07,meteohub,2013-04-29 12:52:00,
2013-04-29 08:57:00,51.8,50.2,30.27,ESE,120,5.0,9.0,94,0.01,,,0.07,meteohub,2013-04-29 12:57:00,
2013-04-29 09:02:00,51.8,50.2,30.26,SE,134,3.0,8.0,94,0.01,,,0.07,meteohub,2013-04-29 13:02:00,
2013-04-29 09:07:00,51.8,50.2,30.27,ENE,77,4.0,8.0,94,0.01,,,0.07,meteohub,2013-04-29 13:07:00,
2013-04-29 09:12:00,51.6,50.0,30.26,ESE,114,1.0,8.0,94,0.01,,,0.08,meteohub,2013-04-29 13:12:00,
2013-04-29 09:17:00,51.6,50.0,30.26,ESE,122,3.0,8.0,94,0.01,,,0.08,meteohub,2013-04-29 13:17:00,
2013-04-29 09:22:00,51.6,50.0,30.26,SSE,148,3.0,8.0,94,0.01,,,0.08,meteohub,2013-04-29 13:22:00,
2013-04-29 09:27:00,51.6,50.0,30.26,East,87,3.0,8.0,94,0.01,,,0.08,meteohub,2013-04-29 13:27:00,
2013-04-29 09:32:00,51.8,50.2,30.26,ESE,113,4.0,10.0,94,0.01,,,0.08,meteohub,2013-04-29 13:32:00,
2013-04-29 09:37:00,51.8,50.2,30.26,ESE,110,4.0,10.0,94,0.01,,,0.08,meteohub,2013-04-29 13:37:00,
2013-04-29 09:42:00,51.8,50.2,30.26,SSE,152,1.0,10.0,94,0.01,,,0.08,meteohub,2013-04-29 13:42:00,
2013-04-29 09:47:00,52.0,50.5,30.26,SE,134,6.0,8.0,95,0.01,,,0.08,meteohub,2013-04-29 13:47:00,
2013-04-29 09:52:00,52.0,50.5,30.26,ENE,77,3.0,8.0,95,0.01,,,0.08,meteohub,2013-04-29 13:52:00,
2013-04-29 09:57:00,52.0,50.5,30.26,ESE,120,5.0,8.0,95,0.01,,,0.08,meteohub,2013-04-29 13:57:00,
2013-04-29 10:02:00,52.0,50.5,30.26,SSE,150,1.0,9.0,95,0.01,,,0.08,meteohub,2013-04-29 14:02:00,
2013-04-29 10:07:00,52.0,50.5,30.26,SSE,148,2.0,10.0,95,0.00,,,0.08,meteohub,2013-04-29 14:07:00,
2013-04-29 10:12:00,52.2,50.7,30.26,ESE,113,3.0,10.0,95,0.01,,,0.09,meteohub,2013-04-29 14:12:00,
2013-04-29 10:17:00,52.2,50.7,30.26,East,94,3.0,10.0,95,0.01,,,0.09,meteohub,2013-04-29 14:17:00,
2013-04-29 10:22:00,52.2,50.7,30.25,ESE,111,4.0,9.0,95,0.01,,,0.09,meteohub,2013-04-29 14:22:00,
2013-04-29 10:27:00,52.2,50.7,30.26,SE,143,7.0,10.0,95,0.02,,,0.09,meteohub,2013-04-29 14:27:00,
2013-04-29 10:32:00,52.2,50.7,30.26,SSE,151,4.0,10.0,95,0.02,,,0.10,meteohub,2013-04-29 14:32:00,
2013-04-29 10:37:00,52.2,50.7,30.25,East,97,4.0,10.0,95,0.03,,,0.11,meteohub,2013-04-29 14:37:00,
2013-04-29 10:42:00,52.2,50.7,30.25,NNE,22,2.0,9.0,95,0.03,,,0.11,meteohub,2013-04-29 14:42:00,
2013-04-29 10:47:00,52.2,50.7,30.25,South,188,4.0,9.0,95,0.03,,,0.11,meteohub,2013-04-29 14:47:00,
2013-04-29 10:52:00,52.2,50.7,30.25,ESE,110,7.0,9.0,95,0.04,,,0.12,meteohub,2013-04-29 14:52:00,
2013-04-29 10:57:00,52.2,50.7,30.25,SE,129,2.0,10.0,95,0.04,,,0.12,meteohub,2013-04-29 14:57:00,
2013-04-29 11:02:00,52.2,50.7,30.25,SE,141,1.0,10.0,95,0.05,,,0.13,meteohub,2013-04-29 15:02:00,
2013-04-29 11:07:00,52.2,50.7,30.25,SSE,158,3.0,10.0,95,0.05,,,0.14,meteohub,2013-04-29 15:07:00,
2013-04-29 11:12:00,52.2,50.7,30.25,ESE,120,1.0,9.0,95,0.05,,,0.14,meteohub,2013-04-29 15:12:00,
2013-04-29 11:17:00,52.2,50.7,30.25,SE,142,3.0,8.0,95,0.06,,,0.15,meteohub,2013-04-29 15:17:00,
2013-04-29 11:22:00,52.2,50.7,30.25,SE,145,4.0,9.0,95,0.07,,,0.16,meteohub,2013-04-29 15:22:00,
2013-04-29 11:27:00,52.0,50.5,30.25,ESE,108,4.0,9.0,95,0.06,,,0.16,meteohub,2013-04-29 15:27:00,
2013-04-29 11:32:00,52.0,50.5,30.25,ENE,77,4.0,10.0,95,0.06,,,0.16,meteohub,2013-04-29 15:32:00,
2013-04-29 11:37:00,52.0,50.5,30.25,ENE,75,2.0,10.0,95,0.06,,,0.17,meteohub,2013-04-29 15:37:00,
2013-04-29 11:42:00,51.8,50.4,30.25,SE,127,2.0,9.0,95,0.06,,,0.17,meteohub,2013-04-29 15:42:00,
2013-04-29 11:47:00,51.6,50.2,30.25,SE,129,3.0,7.0,95,0.07,,,0.18,meteohub,2013-04-29 15:47:00,
2013-04-29 11:52:00,51.6,50.2,30.25,SE,124,3.0,9.0,95,0.07,,,0.19,meteohub,2013-04-29 15:52:00,
2013-04-29 11:57:00,51.8,50.4,30.25,ESE,111,1.0,9.0,95,0.06,,,0.19,meteohub,2013-04-29 15:57:00,
2013-04-29 12:02:00,51.8,50.7,30.25,SSE,148,3.0,9.0,96,0.07,,,0.20,meteohub,2013-04-29 16:02:00,
2013-04-29 12:07:00,52.0,50.9,30.25,ESE,120,3.0,7.0,96,0.06,,,0.20,meteohub,2013-04-29 16:07:00,
2013-04-29 12:12:00,52.0,50.9,30.25,SE,132,4.0,7.0,96,0.06,,,0.21,meteohub,2013-04-29 16:12:00,
2013-04-29 12:17:00,52.0,50.9,30.25,East,98,6.0,10.0,96,0.06,,,0.21,meteohub,2013-04-29 16:17:00,
2013-04-29 12:22:00,52.0,50.9,30.25,SE,129,2.0,10.0,96,0.06,,,0.22,meteohub,2013-04-29 16:22:00,
2013-04-29 12:27:00,52.2,51.1,30.25,SSE,159,4.0,9.0,96,0.06,,,0.22,meteohub,2013-04-29 16:27:00,
2013-04-29 12:32:00,52.2,51.1,30.24,East,98,3.0,9.0,96,0.06,,,0.23,meteohub,2013-04-29 16:32:00,
2013-04-29 12:37:00,52.2,51.1,30.24,East,94,2.0,9.0,96,0.07,,,0.24,meteohub,2013-04-29 16:37:00,
2013-04-29 12:42:00,52.2,51.1,30.24,ESE,108,4.0,9.0,96,0.06,,,0.24,meteohub,2013-04-29 16:42:00,
2013-04-29 12:47:00,52.3,51.3,30.24,SE,141,2.0,10.0,96,0.06,,,0.24,meteohub,2013-04-29 16:47:00,
2013-04-29 12:52:00,52.3,51.3,30.24,SE,143,4.0,10.0,96,0.06,,,0.25,meteohub,2013-04-29 16:52:00,
2013-04-29 12:57:00,52.5,51.4,30.24,ENE,75,4.0,10.0,96,0.06,,,0.25,meteohub,2013-04-29 16:57:00,
2013-04-29 13:02:00,52.5,51.4,30.24,SE,134,1.0,7.0,96,0.05,,,0.25,meteohub,2013-04-29 17:02:00,
2013-04-29 13:07:00,52.5,51.4,30.24,SSE,152,6.0,9.0,96,0.05,,,0.26,meteohub,2013-04-29 17:07:00,
2013-04-29 13:12:00,52.5,51.4,30.24,SE,134,4.0,10.0,96,0.05,,,0.26,meteohub,2013-04-29 17:12:00,
2013-04-29 13:17:00,52.7,51.6,30.24,ESE,106,6.0,10.0,96,0.05,,,0.26,meteohub,2013-04-29 17:17:00,
2013-04-29 13:22:00,52.5,51.4,30.24,ESE,106,6.0,10.0,96,0.04,,,0.26,meteohub,2013-04-29 17:22:00,
2013-04-29 13:27:00,52.7,51.6,30.24,ESE,119,10.0,10.0,96,0.04,,,0.26,meteohub,2013-04-29 17:27:00,
2013-04-29 13:32:00,52.9,51.8,30.24,SE,132,2.0,10.0,96,0.04,,,0.27,meteohub,2013-04-29 17:32:00,
2013-04-29 13:37:00,52.9,51.8,30.24,ESE,121,4.0,10.0,96,0.03,,,0.27,meteohub,2013-04-29 17:37:00,
2013-04-29 13:42:00,52.9,51.8,30.24,East,93,4.0,10.0,96,0.03,,,0.27,meteohub,2013-04-29 17:42:00,
2013-04-29 13:47:00,52.9,51.8,30.24,ENE,72,3.0,9.0,96,0.03,,,0.27,meteohub,2013-04-29 17:47:00,
2013-04-29 13:52:00,52.9,51.8,30.23,SE,124,3.0,8.0,96,0.03,,,0.27,meteohub,2013-04-29 17:52:00,
2013-04-29 13:57:00,53.1,52.0,30.24,ESE,122,4.0,8.0,96,0.03,,,0.28,meteohub,2013-04-29 17:57:00,
2013-04-29 14:02:00,53.2,52.3,30.24,ESE,105,4.0,11.0,97,0.03,,,0.28,meteohub,2013-04-29 18:02:00,
2013-04-29 14:07:00,53.2,52.2,30.24,ESE,109,6.0,11.0,96,0.02,,,0.28,meteohub,2013-04-29 18:07:00,
2013-04-29 14:12:00,53.4,52.3,30.24,SSE,149,2.0,9.0,96,0.02,,,0.28,meteohub,2013-04-29 18:12:00,
2013-04-29 14:17:00,53.4,52.3,30.23,ESE,110,6.0,9.0,96,0.03,,,0.29,meteohub,2013-04-29 18:17:00,
2013-04-29 14:22:00,53.6,52.5,30.23,ESE,122,2.0,10.0,96,0.03,,,0.29,meteohub,2013-04-29 18:22:00,
2013-04-29 14:27:00,53.6,52.5,30.23,ESE,103,3.0,10.0,96,0.02,,,0.29,meteohub,2013-04-29 18:27:00,
2013-04-29 14:32:00,53.6,52.5,30.23,ESE,105,4.0,10.0,96,0.03,,,0.30,meteohub,2013-04-29 18:32:00,
2013-04-29 14:37:00,53.6,52.5,30.23,East,91,3.0,10.0,96,0.03,,,0.30,meteohub,2013-04-29 18:37:00,
2013-04-29 14:42:00,53.6,52.5,30.23,SE,129,5.0,9.0,96,0.03,,,0.30,meteohub,2013-04-29 18:42:00,
2013-04-29 14:47:00,53.6,52.5,30.23,NNE,13,0.0,9.0,96,0.04,,,0.31,meteohub,2013-04-29 18:47:00,
2013-04-29 14:52:00,53.6,52.5,30.23,SE,145,2.0,8.0,96,0.03,,,0.31,meteohub,2013-04-29 18:52:00,
2013-04-29 14:57:00,53.6,52.5,30.23,SE,127,3.0,8.0,96,0.04,,,0.32,meteohub,2013-04-29 18:57:00,
2013-04-29 15:02:00,53.6,52.5,30.22,ENE,76,1.0,8.0,96,0.04,,,0.32,meteohub,2013-04-29 19:02:00,
2013-04-29 15:07:00,53.4,52.3,30.22,ESE,109,4.0,8.0,96,0.05,,,0.33,meteohub,2013-04-29 19:07:00,
2013-04-29 15:12:00,53.4,52.3,30.22,ESE,122,7.0,8.0,96,0.04,,,0.33,meteohub,2013-04-29 19:12:00,
2013-04-29 15:17:00,53.2,52.2,30.22,SE,144,5.0,8.0,96,0.05,,,0.34,meteohub,2013-04-29 19:17:00,
2013-04-29 15:22:00,53.2,52.2,30.22,East,96,7.0,8.0,96,0.05,,,0.34,meteohub,2013-04-29 19:22:00,
2013-04-29 15:27:00,53.1,52.0,30.22,ESE,114,6.0,8.0,96,0.05,,,0.34,meteohub,2013-04-29 19:27:00,
2013-04-29 15:32:00,53.1,52.2,30.22,ESE,120,6.0,8.0,97,0.06,,,0.35,meteohub,2013-04-29 19:32:00,
2013-04-29 15:37:00,53.1,52.2,30.22,SE,130,3.0,8.0,97,0.06,,,0.36,meteohub,2013-04-29 19:37:00,
2013-04-29 15:42:00,53.1,52.2,30.22,ESE,120,5.0,8.0,97,0.07,,,0.37,meteohub,2013-04-29 19:42:00,
2013-04-29 15:47:00,53.1,52.2,30.22,ESE,123,4.0,8.0,97,0.06,,,0.37,meteohub,2013-04-29 19:47:00,
2013-04-29 15:52:00,53.1,52.2,30.22,ENE,75,4.0,8.0,97,0.06,,,0.37,meteohub,2013-04-29 19:52:00,
2013-04-29 15:57:00,53.1,52.2,30.22,ESE,122,3.0,9.0,97,0.05,,,0.37,meteohub,2013-04-29 19:57:00,
2013-04-29 16:02:00,53.1,52.2,30.22,SSE,166,3.0,9.0,97,0.06,,,0.38,meteohub,2013-04-29 20:02:00,
2013-04-29 16:07:00,53.1,52.2,30.22,SE,134,1.0,9.0,97,0.05,,,0.38,meteohub,2013-04-29 20:07:00,
2013-04-29 16:12:00,53.1,52.2,30.22,SE,135,2.0,8.0,97,0.04,,,0.38,meteohub,2013-04-29 20:12:00,
2013-04-29 16:17:00,53.1,52.2,30.22,SE,138,2.0,12.0,97,0.04,,,0.38,meteohub,2013-04-29 20:17:00,
2013-04-29 16:22:00,52.9,52.0,30.22,SE,125,2.0,12.0,97,0.04,,,0.38,meteohub,2013-04-29 20:22:00,
2013-04-29 16:27:00,52.9,52.0,30.22,East,89,5.0,12.0,97,0.05,,,0.39,meteohub,2013-04-29 20:27:00,
2013-04-29 16:32:00,52.9,52.0,30.22,NE,54,2.0,8.0,97,0.03,,,0.39,meteohub,2013-04-29 20:32:00,
2013-04-29 16:37:00,52.9,52.0,30.22,SE,124,1.0,8.0,97,0.02,,,0.39,meteohub,2013-04-29 20:37:00,
2013-04-29 16:42:00,53.1,52.2,30.22,East,82,4.0,8.0,97,0.02,,,0.39,meteohub,2013-04-29 20:42:00,
2013-04-29 16:47:00,53.1,52.2,30.22,ESE,117,2.0,8.0,97,0.02,,,0.39,meteohub,2013-04-29 20:47:00,
2013-04-29 16:52:00,53.1,52.2,30.22,East,87,4.0,7.0,97,0.02,,,0.39,meteohub,2013-04-29 20:52:00,
2013-04-29 16:57:00,53.1,52.2,30.22,SE,132,4.0,10.0,97,0.01,,,0.39,meteohub,2013-04-29 20:57:00,
2013-04-29 17:02:00,53.1,52.2,30.22,SE,143,5.0,10.0,97,0.01,,,0.39,meteohub,2013-04-29 21:02:00,
2013-04-29 17:07:00,53.1,52.2,30.22,ESE,105,2.0,10.0,97,0.01,,,0.39,meteohub,2013-04-29 21:07:00,
2013-04-29 17:12:00,53.1,52.2,30.22,East,94,2.0,8.0,97,0.02,,,0.40,meteohub,2013-04-29 21:12:00,
2013-04-29 17:17:00,53.2,52.3,30.22,ESE,104,2.0,9.0,97,0.02,,,0.40,meteohub,2013-04-29 21:17:00,
2013-04-29 17:22:00,53.2,52.3,30.22,SE,129,2.0,9.0,97,0.01,,,0.40,meteohub,2013-04-29 21:22:00,
2013-04-29 17:27:00,53.2,52.3,30.22,ENE,75,3.0,9.0,97,0.02,,,0.41,meteohub,2013-04-29 21:27:00,
2013-04-29 17:32:00,53.2,52.3,30.22,ESE,106,2.0,7.0,97,0.02,,,0.41,meteohub,2013-04-29 21:32:00,
2013-04-29 17:37:00,53.2,52.3,30.22,ENE,69,1.0,7.0,97,0.03,,,0.42,meteohub,2013-04-29 21:37:00,
2013-04-29 17:42:00,53.4,52.5,30.22,ESE,114,1.0,6.0,97,0.03,,,0.42,meteohub,2013-04-29 21:42:00,
2013-04-29 17:47:00,53.4,52.5,30.22,SE,137,1.0,6.0,97,0.03,,,0.42,meteohub,2013-04-29 21:47:00,
2013-04-29 17:52:00,53.4,52.5,30.22,ESE,111,1.0,6.0,97,0.04,,,0.43,meteohub,2013-04-29 21:52:00,
2013-04-29 17:57:00,53.6,52.7,30.22,East,82,2.0,5.0,97,0.04,,,0.43,meteohub,2013-04-29 21:57:00,
2013-04-29 18:02:00,53.6,52.7,30.22,SE,130,1.0,5.0,97,0.04,,,0.43,meteohub,2013-04-29 22:02:00,
2013-04-29 18:07:00,53.8,52.9,30.22,ESE,120,1.0,5.0,97,0.04,,,0.44,meteohub,2013-04-29 22:07:00,
2013-04-29 18:12:00,53.8,52.9,30.22,SSE,152,0.0,3.0,97,0.04,,,0.44,meteohub,2013-04-29 22:12:00,
2013-04-29 18:17:00,53.8,52.9,30.22,SE,127,1.0,3.0,97,0.04,,,0.44,meteohub,2013-04-29 22:17:00,
2013-04-29 18:22:00,53.8,52.9,30.22,ESE,103,2.0,5.0,97,0.03,,,0.44,meteohub,2013-04-29 22:22:00,
2013-04-29 18:27:00,53.8,52.9,30.22,ESE,110,2.0,5.0,97,0.04,,,0.45,meteohub,2013-04-29 22:27:00,
2013-04-29 18:32:00,53.8,52.9,30.23,SSE,150,4.0,5.0,97,0.05,,,0.46,meteohub,2013-04-29 22:32:00,
2013-04-29 18:37:00,53.8,52.9,30.22,SE,132,3.0,5.0,97,0.05,,,0.47,meteohub,2013-04-29 22:37:00,
2013-04-29 18:42:00,53.8,52.9,30.22,ESE,120,1.0,5.0,97,0.06,,,0.48,meteohub,2013-04-29 22:42:00,
2013-04-29 18:47:00,53.8,52.9,30.22,SE,138,1.0,5.0,97,0.06,,,0.49,meteohub,2013-04-29 22:47:00,
2013-04-29 18:52:00,54.0,53.1,30.22,SE,124,3.0,5.0,97,0.07,,,0.50,meteohub,2013-04-29 22:52:00,
2013-04-29 18:57:00,54.0,53.1,30.23,ESE,118,4.0,5.0,97,0.07,,,0.50,meteohub,2013-04-29 22:57:00,
2013-04-29 19:02:00,54.0,53.1,30.22,ESE,116,1.0,7.0,97,0.08,,,0.51,meteohub,2013-04-29 23:02:00,
2013-04-29 19:07:00,54.0,53.1,30.23,ESE,118,1.0,7.0,97,0.08,,,0.52,meteohub,2013-04-29 23:07:00,
2013-04-29 19:12:00,53.8,52.9,30.23,SE,135,1.0,7.0,97,0.08,,,0.52,meteohub,2013-04-29 23:12:00,
2013-04-29 19:17:00,53.8,52.9,30.23,SE,134,2.0,5.0,97,0.09,,,0.53,meteohub,2013-04-29 23:17:00,
2013-04-29 19:22:00,53.8,52.9,30.23,NNE,19,1.0,6.0,97,0.10,,,0.54,meteohub,2013-04-29 23:22:00,
2013-04-29 19:27:00,53.8,52.9,30.23,SE,136,1.0,6.0,97,0.09,,,0.54,meteohub,2013-04-29 23:27:00,
2013-04-29 19:32:00,53.8,52.9,30.23,ESE,109,1.0,6.0,97,0.09,,,0.55,meteohub,2013-04-29 23:32:00,
2013-04-29 19:37:00,53.8,52.9,30.23,East,96,5.0,10.0,97,0.09,,,0.55,meteohub,2013-04-29 23:37:00,
2013-04-29 19:42:00,53.8,52.9,30.23,SE,137,1.0,10.0,97,0.08,,,0.56,meteohub,2013-04-29 23:42:00,
2013-04-29 19:47:00,53.8,52.9,30.24,SE,133,1.0,10.0,97,0.08,,,0.57,meteohub,2013-04-29 23:47:00,
2013-04-29 19:52:00,53.8,52.9,30.24,SE,138,1.0,7.0,97,0.07,,,0.57,meteohub,2013-04-29 23:52:00,
2013-04-29 19:57:00,53.8,52.9,30.24,SE,130,1.0,5.0,97,0.06,,,0.57,meteohub,2013-04-29 23:57:00,
2013-04-29 20:02:00,53.8,52.9,30.24,ESE,114,1.0,5.0,97,0.07,,,0.58,meteohub,2013-04-30 00:02:00,
2013-04-29 20:07:00,53.8,52.9,30.24,ESE,123,4.0,5.0,97,0.07,,,0.01,meteohub,2013-04-30 00:07:00,
2013-04-29 20:12:00,53.8,52.9,30.24,ESE,106,1.0,7.0,97,0.06,,,0.01,meteohub,2013-04-30 00:12:00,
2013-04-29 20:17:00,53.8,52.9,30.25,ESE,108,5.0,7.0,97,0.07,,,0.02,meteohub,2013-04-30 00:17:00,
2013-04-29 20:22:00,53.8,52.9,30.24,ESE,102,2.0,7.0,97,0.06,,,0.02,meteohub,2013-04-30 00:22:00,
2013-04-29 20:27:00,53.8,52.9,30.25,ENE,63,2.0,8.0,97,0.06,,,0.02,meteohub,2013-04-30 00:27:00,
2013-04-29 20:32:00,53.8,52.9,30.25,East,94,8.0,8.0,97,0.05,,,0.02,meteohub,2013-04-30 00:32:00,
2013-04-29 20:37:00,53.8,52.9,30.25,ESE,115,6.0,8.0,97,0.04,,,0.02,meteohub,2013-04-30 00:37:00,
2013-04-29 20:42:00,53.8,52.9,30.25,ESE,107,1.0,9.0,97,0.04,,,0.02,meteohub,2013-04-30 00:42:00,
2013-04-29 20:47:00,53.8,52.9,30.25,SE,139,2.0,9.0,97,0.03,,,0.02,meteohub,2013-04-30 00:47:00,
2013-04-29 20:52:00,53.8,52.9,30.25,SSE,156,4.0,9.0,97,0.03,,,0.02,meteohub,2013-04-30 00:52:00,
2013-04-29 20:57:00,53.8,52.9,30.25,ESE,109,3.0,10.0,97,0.02,,,0.02,meteohub,2013-04-30 00:57:00,
2013-04-29 21:02:00,53.8,52.9,30.26,ESE,118,1.0,10.0,97,0.01,,,0.02,meteohub,2013-04-30 01:02:00,
2013-04-29 21:07:00,53.6,52.7,30.26,ESE,114,2.0,9.0,97,0.01,,,0.02,meteohub,2013-04-30 01:07:00,
2013-04-29 21:12:00,53.6,52.7,30.26,SE,128,1.0,6.0,97,0.01,,,0.02,meteohub,2013-04-30 01:12:00,
2013-04-29 21:17:00,53.6,52.7,30.26,ESE,106,2.0,7.0,97,0.01,,,0.03,meteohub,2013-04-30 01:17:00,
2013-04-29 21:22:00,53.8,52.9,30.26,SE,141,1.0,7.0,97,0.01,,,0.03,meteohub,2013-04-30 01:22:00,
2013-04-29 21:27:00,53.6,52.7,30.26,ESE,117,3.0,7.0,97,0.01,,,0.03,meteohub,2013-04-30 01:27:00,
2013-04-29 21:32:00,53.6,52.7,30.26,ESE,103,1.0,6.0,97,0.01,,,0.03,meteohub,2013-04-30 01:32:00,
2013-04-29 21:37:00,53.6,52.7,30.26,SE,129,6.0,6.0,97,0.01,,,0.03,meteohub,2013-04-30 01:37:00,
2013-04-29 21:42:00,53.6,52.7,30.26,SE,127,3.0,6.0,97,0.01,,,0.03,meteohub,2013-04-30 01:42:00,
2013-04-29 21:47:00,53.6,52.7,30.26,SE,130,2.0,6.0,97,0.01,,,0.03,meteohub,2013-04-30 01:47:00,
2013-04-29 21:52:00,53.4,52.5,30.26,ESE,123,4.0,6.0,97,0.01,,,0.03,meteohub,2013-04-30 01:52:00,
2013-04-29 21:57:00,53.4,52.5,30.27,ESE,120,2.0,8.0,97,0.01,,,0.03,meteohub,2013-04-30 01:57:00,
2013-04-29 22:02:00,53.4,52.5,30.26,SE,130,2.0,9.0,97,0.01,,,0.03,meteohub,2013-04-30 02:02:00,
2013-04-29 22:07:00,53.4,52.5,30.27,SE,127,3.0,9.0,97,0.01,,,0.03,meteohub,2013-04-30 02:07:00,
2013-04-29 22:12:00,53.4,52.5,30.27,SE,127,4.0,9.0,97,0.01,,,0.03,meteohub,2013-04-30 02:12:00,
2013-04-29 22:17:00,53.4,52.5,30.27,ESE,115,1.0,7.0,97,0.00,,,0.03,meteohub,2013-04-30 02:17:00,
2013-04-29 22:22:00,53.4,52.5,30.27,ESE,118,4.0,7.0,97,0.00,,,0.03,meteohub,2013-04-30 02:22:00,
2013-04-29 22:27:00,53.4,52.5,30.27,ESE,103,3.0,7.0,97,0.00,,,0.03,meteohub,2013-04-30 02:27:00,
2013-04-29 22:32:00,53.4,52.5,30.27,ESE,105,4.0,7.0,97,0.00,,,0.03,meteohub,2013-04-30 02:32:00,
2013-04-29 22:37:00,53.4,52.5,30.27,SE,142,4.0,7.0,97,0.00,,,0.03,meteohub,2013-04-30 02:37:00,
2013-04-29 22:42:00,53.2,52.3,30.27,SE,132,1.0,7.0,97,0.00,,,0.03,meteohub,2013-04-30 02:42:00,
2013-04-29 22:47:00,53.2,52.3,30.27,East,96,1.0,7.0,97,0.00,,,0.03,meteohub,2013-04-30 02:47:00,
2013-04-29 22:52:00,53.2,52.3,30.27,SE,138,1.0,7.0,97,0.00,,,0.03,meteohub,2013-04-30 02:52:00,
2013-04-29 22:57:00,53.2,52.3,30.27,East,89,3.0,5.0,97,0.00,,,0.03,meteohub,2013-04-30 02:57:00,
2013-04-29 23:02:00,53.2,52.3,30.27,SSE,163,4.0,4.0,97,0.00,,,0.03,meteohub,2013-04-30 03:02:00,
2013-04-29 23:07:00,53.2,52.3,30.27,SE,124,2.0,6.0,97,0.00,,,0.03,meteohub,2013-04-30 03:07:00,
2013-04-29 23:12:00,53.2,52.3,30.27,East,91,1.0,6.0,97,0.00,,,0.03,meteohub,2013-04-30 03:12:00,
2013-04-29 23:17:00,53.2,52.3,30.27,ESE,118,2.0,6.0,97,0.00,,,0.03,meteohub,2013-04-30 03:17:00,
2013-04-29 23:22:00,53.2,52.3,30.27,ESE,110,1.0,4.0,97,0.00,,,0.03,meteohub,2013-04-30 03:22:00,
2013-04-29 23:27:00,53.2,52.3,30.27,East,99,2.0,4.0,97,0.00,,,0.03,meteohub,2013-04-30 03:27:00,
2013-04-29 23:32:00,53.2,52.3,30.27,ESE,116,0.0,4.0,97,0.00,,,0.03,meteohub,2013-04-30 03:32:00,
2013-04-29 23:37:00,53.1,52.2,30.27,ENE,66,0.0,4.0,97,0.01,,,0.04,meteohub,2013-04-30 03:37:00,
2013-04-29 23:42:00,53.1,52.2,30.27,East,82,1.0,4.0,97,0.01,,,0.04,meteohub,2013-04-30 03:42:00,
2013-04-29 23:47:00,53.1,52.2,30.27,ESE,112,1.0,4.0,97,0.01,,,0.04,meteohub,2013-04-30 03:47:00,
2013-04-29 23:52:00,53.1,52.2,30.27,SE,133,3.0,4.0,97,0.01,,,0.04,meteohub,2013-04-30 03:52:00,
2013-04-29 23:57:00,53.1,52.2,30.27,East,82,2.0,5.0,97,0.01,,,0.04,meteohub,2013-04-30 03:57:00,